Epoch 2014 Oct. 30.0 TT = JDT 2456960.5 T 2014 Oct. 25.30088 TT MPCW q 1.3987161 (2000.0) P Q z -0.0002738 Peri. 2.42176 +0.49141015 -0.56132756 Node 300.97675 -0.81154803 -0.57261424 e 1.0003829 Incl. 129.04277 -0.31607887 +0.59751511 From 3037 observations 2012 Oct. 4-2017 Jan. 27, mean residual 0".6. Nongravitational parameters A1 = +2.04, A2 = -0.2924.
m1 = 8.8 + 5 logΔ + 6.0 log r(t + 40) [ , 17] ( 〜2014年11月11日) m1 = 5.0 + 5 logΔ + 18.0 log r [ 17,220] (2014年11月11日〜2015年 6月 2日) m1 = 14.0 + 5 logΔ + 0.0 log r [220,480] (2015年 6月 2日〜2016年 2月17日) m1 = 6.5 + 5 logΔ + 10.0 log r [480, ] (2016年 2月17日〜 )